Time,TemperatureF,DewpointF,PressureIn,WindDirection,WindDirectionDegrees,WindSpeedMPH,WindSpeedGustMPH,Humidity,HourlyPrecipIn,Conditions,Clouds,dailyrainin,SolarRadiationWatts/m^2,SoftwareType,DateUTC
2013-01-08 00:04:00,36.6,29.7,30.44,NNW,340,3.0,7.0,76,0.00,,,0.00,0,Wunderground v.1.15,2013-01-08 05:04:00,
2013-01-08 00:09:00,36.6,30.1,30.44,NNW,340,3.0,7.0,77,0.00,,,0.00,0,Wunderground v.1.15,2013-01-08 05:09:00,
2013-01-08 00:19:00,36.5,30.0,30.44,NNW,340,2.0,7.0,77,0.00,,,0.00,0,Wunderground v.1.15,2013-01-08 05:19:00,
2013-01-08 00:24:00,36.5,30.0,30.44,NNW,340,3.0,7.0,77,0.00,,,0.00,0,Wunderground v.1.15,2013-01-08 05:24:00,
2013-01-08 00:29:00,36.5,30.0,30.44,NNW,340,3.0,7.0,77,0.00,,,0.00,0,Wunderground v.1.15,2013-01-08 05:29:00,
2013-01-08 00:34:00,36.5,30.0,30.44,NNW,340,3.0,7.0,77,0.00,,,0.00,0,Wunderground v.1.15,2013-01-08 05:34:00,
2013-01-08 00:39:00,36.6,30.1,30.44,NNW,340,3.0,7.0,77,0.00,,,0.00,0,Wunderground v.1.15,2013-01-08 05:39:00,
2013-01-08 00:44:00,36.6,30.1,30.44,NNW,340,3.0,7.0,77,0.00,,,0.00,0,Wunderground v.1.15,2013-01-08 05:44:00,
2013-01-08 00:49:00,36.7,30.2,30.44,NNW,339,3.0,7.0,77,0.00,,,0.00,0,Wunderground v.1.15,2013-01-08 05:49:00,
2013-01-08 00:54:00,36.8,30.3,30.44,NNW,339,3.0,7.0,77,0.00,,,0.00,0,Wunderground v.1.15,2013-01-08 05:54:00,
2013-01-08 00:59:00,36.9,30.4,30.44,NNW,338,3.0,3.0,77,0.00,,,0.00,0,Wunderground v.1.15,2013-01-08 05:59:00,
2013-01-08 01:04:00,36.9,30.4,30.44,NNW,338,3.0,7.0,77,0.00,,,0.00,0,Wunderground v.1.15,2013-01-08 06:04:00,
2013-01-08 01:09:00,36.9,30.4,30.44,NNW,338,2.0,7.0,77,0.00,,,0.00,0,Wunderground v.1.15,2013-01-08 06:09:00,
2013-01-08 01:14:00,36.9,30.4,30.43,NNW,338,3.0,7.0,77,0.00,,,0.00,0,Wunderground v.1.15,2013-01-08 06:14:00,
2013-01-08 01:19:00,36.9,30.4,30.43,NNW,338,3.0,3.0,77,0.00,,,0.00,0,Wunderground v.1.15,2013-01-08 06:19:00,
2013-01-08 01:29:00,37.0,30.5,30.43,NNW,338,3.0,7.0,77,0.00,,,0.00,0,Wunderground v.1.15,2013-01-08 06:29:00,
2013-01-08 01:34:00,37.0,30.5,30.43,NNW,338,2.0,7.0,77,0.00,,,0.00,0,Wunderground v.1.15,2013-01-08 06:34:00,
2013-01-08 01:39:00,37.0,30.8,30.43,NNW,338,2.0,7.0,78,0.00,,,0.00,0,Wunderground v.1.15,2013-01-08 06:39:00,
2013-01-08 01:44:00,37.1,30.9,30.43,NNW,338,2.0,7.0,78,0.00,,,0.00,0,Wunderground v.1.15,2013-01-08 06:44:00,
2013-01-08 01:54:00,37.1,30.9,30.43,NNW,338,2.0,7.0,78,0.00,,,0.00,0,Wunderground v.1.15,2013-01-08 06:54:00,
2013-01-08 02:04:00,37.2,31.0,30.43,NNW,338,1.0,7.0,78,0.00,,,0.00,0,Wunderground v.1.15,2013-01-08 07:04:00,
2013-01-08 02:09:00,37.3,31.1,30.42,NNW,338,1.0,7.0,78,0.00,,,0.00,0,Wunderground v.1.15,2013-01-08 07:09:00,
2013-01-08 02:14:00,37.3,31.1,30.43,NNW,338,1.0,7.0,78,0.00,,,0.00,0,Wunderground v.1.15,2013-01-08 07:14:00,
2013-01-08 02:19:00,37.3,31.1,30.43,NNW,338,1.0,7.0,78,0.00,,,0.00,0,Wunderground v.1.15,2013-01-08 07:19:00,
2013-01-08 02:24:00,37.2,31.0,30.43,NNW,338,1.0,7.0,78,0.00,,,0.00,0,Wunderground v.1.15,2013-01-08 07:24:00,
2013-01-08 02:29:00,37.1,30.9,30.43,NNW,338,1.0,7.0,78,0.00,,,0.00,0,Wunderground v.1.15,2013-01-08 07:29:00,
2013-01-08 02:34:00,37.1,30.9,30.42,NNW,338,1.0,7.0,78,0.00,,,0.00,0,Wunderground v.1.15,2013-01-08 07:34:00,
2013-01-08 02:44:00,37.3,31.1,30.42,NNW,338,1.0,7.0,78,0.00,,,0.00,0,Wunderground v.1.15,2013-01-08 07:44:00,
2013-01-08 02:49:00,37.4,31.2,30.42,NNW,338,1.0,1.0,78,0.00,,,0.00,0,Wunderground v.1.15,2013-01-08 07:49:00,
2013-01-08 02:54:00,37.4,31.5,30.42,NNW,338,1.0,7.0,79,0.00,,,0.00,0,Wunderground v.1.15,2013-01-08 07:54:00,
2013-01-08 02:59:00,37.6,31.7,30.42,NNW,338,1.0,7.0,79,0.00,,,0.00,0,Wunderground v.1.15,2013-01-08 07:59:00,
2013-01-08 03:04:00,37.7,31.8,30.42,NNW,338,1.0,7.0,79,0.00,,,0.00,0,Wunderground v.1.15,2013-01-08 08:04:00,
2013-01-08 03:09:00,37.8,31.9,30.42,NNW,338,2.0,7.0,79,0.00,,,0.00,0,Wunderground v.1.15,2013-01-08 08:09:00,
2013-01-08 03:14:00,37.8,31.9,30.42,NNW,335,2.0,7.0,79,0.00,,,0.00,0,Wunderground v.1.15,2013-01-08 08:14:00,
2013-01-08 03:24:00,37.9,32.3,30.42,NNW,333,2.0,7.0,80,0.00,,,0.00,0,Wunderground v.1.15,2013-01-08 08:24:00,
2013-01-08 03:34:00,37.8,32.2,30.42,NNW,332,2.0,6.0,80,0.00,,,0.00,0,Wunderground v.1.15,2013-01-08 08:34:00,
2013-01-08 03:39:00,37.9,32.3,30.42,NW,325,2.0,7.0,80,0.00,,,0.00,0,Wunderground v.1.15,2013-01-08 08:39:00,
2013-01-08 03:49:00,37.9,32.6,30.42,NW,309,2.0,7.0,81,0.00,,,0.00,0,Wunderground v.1.15,2013-01-08 08:49:00,
2013-01-08 03:59:00,37.9,32.6,30.42,WNW,300,3.0,3.0,81,0.00,,,0.00,0,Wunderground v.1.15,2013-01-08 08:59:00,
2013-01-08 04:04:00,37.8,32.8,30.42,WNW,299,2.0,7.0,82,0.00,,,0.00,0,Wunderground v.1.15,2013-01-08 09:04:00,
2013-01-08 04:09:00,37.8,32.8,30.42,WNW,299,2.0,2.0,82,0.00,,,0.00,0,Wunderground v.1.15,2013-01-08 09:09:00,
2013-01-08 04:14:00,37.8,32.8,30.41,WNW,299,2.0,7.0,82,0.00,,,0.00,0,Wunderground v.1.15,2013-01-08 09:14:00,
2013-01-08 04:19:00,37.7,33.0,30.41,WNW,299,1.0,7.0,83,0.00,,,0.00,0,Wunderground v.1.15,2013-01-08 09:19:00,
2013-01-08 04:24:00,37.6,32.9,30.41,WNW,299,1.0,7.0,83,0.00,,,0.00,0,Wunderground v.1.15,2013-01-08 09:24:00,
2013-01-08 04:29:00,37.5,32.8,30.41,WNW,299,1.0,7.0,83,0.00,,,0.00,0,Wunderground v.1.15,2013-01-08 09:29:00,
2013-01-08 04:34:00,37.6,33.2,30.41,WNW,296,2.0,7.0,84,0.00,,,0.00,0,Wunderground v.1.15,2013-01-08 09:34:00,
2013-01-08 04:44:00,37.7,33.3,30.41,WNW,295,2.0,3.0,84,0.00,,,0.00,0,Wunderground v.1.15,2013-01-08 09:44:00,
2013-01-08 04:49:00,37.7,33.3,30.42,WNW,295,2.0,7.0,84,0.00,,,0.00,0,Wunderground v.1.15,2013-01-08 09:49:00,
2013-01-08 04:59:00,37.3,32.9,30.42,WNW,295,2.0,7.0,84,0.00,,,0.00,0,Wunderground v.1.15,2013-01-08 09:59:00,
2013-01-08 05:04:00,37.3,32.9,30.42,WNW,295,2.0,7.0,84,0.00,,,0.00,0,Wunderground v.1.15,2013-01-08 10:04:00,
2013-01-08 05:14:00,37.1,33.0,30.42,WNW,295,2.0,7.0,85,0.00,,,0.00,0,Wunderground v.1.15,2013-01-08 10:14:00,
2013-01-08 05:19:00,37.0,32.9,30.42,WNW,295,2.0,2.0,85,0.00,,,0.00,0,Wunderground v.1.15,2013-01-08 10:19:00,
2013-01-08 05:29:00,36.8,32.4,30.42,WNW,295,2.0,7.0,84,0.00,,,0.00,0,Wunderground v.1.15,2013-01-08 10:29:00,
2013-01-08 05:34:00,36.7,32.3,30.42,WNW,295,2.0,7.0,84,0.00,,,0.00,0,Wunderground v.1.15,2013-01-08 10:34:00,
2013-01-08 05:39:00,36.6,32.5,30.43,WNW,295,2.0,2.0,85,0.00,,,0.00,0,Wunderground v.1.15,2013-01-08 10:39:00,
2013-01-08 05:49:00,36.4,32.3,30.43,WNW,295,2.0,7.0,85,0.00,,,0.00,0,Wunderground v.1.15,2013-01-08 10:49:00,
2013-01-08 05:59:00,36.4,32.3,30.43,WNW,295,1.0,7.0,85,0.00,,,0.00,0,Wunderground v.1.15,2013-01-08 10:59:00,
2013-01-08 06:04:00,36.3,32.2,30.44,WNW,294,2.0,7.0,85,0.00,,,0.00,0,Wunderground v.1.15,2013-01-08 11:04:00,
2013-01-08 06:14:00,36.3,31.9,30.44,WNW,295,2.0,7.0,84,0.00,,,0.00,0,Wunderground v.1.15,2013-01-08 11:14:00,
2013-01-08 06:19:00,36.2,31.8,30.44,WNW,295,2.0,2.0,84,0.00,,,0.00,0,Wunderground v.1.15,2013-01-08 11:19:00,
2013-01-08 06:24:00,36.2,31.8,30.44,WNW,295,2.0,7.0,84,0.00,,,0.00,0,Wunderground v.1.15,2013-01-08 11:24:00,
2013-01-08 06:34:00,36.2,32.1,30.44,WNW,295,2.0,7.0,85,0.00,,,0.00,0,Wunderground v.1.15,2013-01-08 11:34:00,
2013-01-08 06:39:00,36.2,32.1,30.45,WNW,295,2.0,2.0,85,0.00,,,0.00,0,Wunderground v.1.15,2013-01-08 11:39:00,
2013-01-08 06:49:00,36.4,32.0,30.45,WNW,295,2.0,2.0,84,0.00,,,0.00,0,Wunderground v.1.15,2013-01-08 11:49:00,
2013-01-08 06:54:00,36.5,32.1,30.45,WNW,295,2.0,7.0,84,0.00,,,0.00,0,Wunderground v.1.15,2013-01-08 11:54:00,
2013-01-08 07:04:00,36.5,32.1,30.45,WNW,295,2.0,5.0,84,0.00,,,0.00,0,Wunderground v.1.15,2013-01-08 12:04:00,
2013-01-08 07:09:00,36.5,32.1,30.45,WNW,295,2.0,7.0,84,0.00,,,0.00,0,Wunderground v.1.15,2013-01-08 12:09:00,
2013-01-08 07:14:00,36.5,31.8,30.45,WNW,295,3.0,7.0,83,0.00,,,0.00,0,Wunderground v.1.15,2013-01-08 12:14:00,
2013-01-08 07:24:00,36.5,31.8,30.45,WNW,295,2.0,7.0,83,0.00,,,0.00,9,Wunderground v.1.15,2013-01-08 12:24:00,
2013-01-08 07:29:00,36.5,31.8,30.46,WNW,295,2.0,2.0,83,0.00,,,0.00,14,Wunderground v.1.15,2013-01-08 12:29:00,
2013-01-08 07:39:00,36.7,32.0,30.46,WNW,295,3.0,7.0,83,0.00,,,0.00,33,Wunderground v.1.15,2013-01-08 12:39:00,
2013-01-08 07:49:00,37.0,32.0,30.46,WNW,294,4.0,4.0,82,0.00,,,0.00,56,Wunderground v.1.15,2013-01-08 12:49:00,
2013-01-08 07:54:00,37.3,32.3,30.47,WNW,294,3.0,7.0,82,0.00,,,0.00,70,Wunderground v.1.15,2013-01-08 12:54:00,
2013-01-08 07:59:00,37.6,32.6,30.46,West,281,4.0,7.0,82,0.00,,,0.00,88,Wunderground v.1.15,2013-01-08 12:59:00,
2013-01-08 08:09:00,38.1,32.8,30.47,West,278,3.0,7.0,81,0.00,,,0.00,121,Wunderground v.1.15,2013-01-08 13:09:00,
2013-01-08 08:14:00,38.3,33.0,30.47,West,278,3.0,7.0,81,0.00,,,0.00,137,Wunderground v.1.15,2013-01-08 13:14:00,
2013-01-08 08:24:00,38.7,33.1,30.47,West,277,3.0,7.0,80,0.00,,,0.00,174,Wunderground v.1.15,2013-01-08 13:24:00,
2013-01-08 08:34:00,39.2,33.5,30.47,West,272,4.0,7.0,80,0.00,,,0.00,209,Wunderground v.1.15,2013-01-08 13:34:00,
2013-01-08 08:39:00,39.6,33.9,30.47,West,268,4.0,7.0,80,0.00,,,0.00,225,Wunderground v.1.15,2013-01-08 13:39:00,
2013-01-08 08:44:00,40.0,34.0,30.47,West,268,4.0,7.0,79,0.00,,,0.00,241,Wunderground v.1.15,2013-01-08 13:44:00,
2013-01-08 08:54:00,40.7,34.7,30.47,West,267,4.0,7.0,79,0.00,,,0.00,265,Wunderground v.1.15,2013-01-08 13:54:00,
2013-01-08 08:59:00,41.3,35.3,30.47,West,266,4.0,7.0,79,0.00,,,0.00,278,Wunderground v.1.15,2013-01-08 13:59:00,
2013-01-08 09:04:00,41.7,35.3,30.46,West,264,4.0,7.0,78,0.00,,,0.00,279,Wunderground v.1.15,2013-01-08 14:04:00,
2013-01-08 09:14:00,42.3,35.6,30.47,WSW,245,5.0,8.0,77,0.00,,,0.00,211,Wunderground v.1.15,2013-01-08 14:14:00,
2013-01-08 09:24:00,42.8,36.1,30.47,SW,227,4.0,7.0,77,0.00,,,0.00,70,Wunderground v.1.15,2013-01-08 14:24:00,
2013-01-08 09:29:00,43.0,36.0,30.46,SW,223,4.0,4.0,76,0.00,,,0.00,42,Wunderground v.1.15,2013-01-08 14:29:00,
2013-01-08 09:34:00,43.3,36.2,30.46,SW,221,4.0,7.0,76,0.00,,,0.00,40,Wunderground v.1.15,2013-01-08 14:34:00,
2013-01-08 09:44:00,44.1,36.3,30.46,SW,219,4.0,8.0,74,0.00,,,0.00,40,Wunderground v.1.15,2013-01-08 14:44:00,
2013-01-08 09:49:00,44.5,36.4,30.46,SW,217,4.0,7.0,73,0.00,,,0.00,40,Wunderground v.1.15,2013-01-08 14:49:00,
2013-01-08 09:59:00,45.3,36.8,30.46,SW,217,4.0,4.0,72,0.00,,,0.00,40,Wunderground v.1.15,2013-01-08 14:59:00,
2013-01-08 10:04:00,45.7,37.2,30.45,SW,215,4.0,6.0,72,0.00,,,0.00,42,Wunderground v.1.15,2013-01-08 15:04:00,
2013-01-08 10:14:00,46.0,37.5,30.45,SSW,211,4.0,5.0,72,0.00,,,0.00,42,Wunderground v.1.15,2013-01-08 15:14:00,
2013-01-08 10:19:00,45.7,37.2,30.45,SSW,211,4.0,4.0,72,0.00,,,0.00,42,Wunderground v.1.15,2013-01-08 15:19:00,
2013-01-08 10:29:00,45.7,37.2,30.44,SSW,211,4.0,4.0,72,0.00,,,0.00,127,Wunderground v.1.15,2013-01-08 15:29:00,
2013-01-08 10:34:00,45.7,37.2,30.44,SSW,211,5.0,5.0,72,0.00,,,0.00,234,Wunderground v.1.15,2013-01-08 15:34:00,
2013-01-08 10:40:00,45.8,36.9,30.44,SSW,209,5.0,5.0,71,0.00,,,0.00,397,Wunderground v.1.15,2013-01-08 15:40:00,
2013-01-08 10:49:00,46.3,37.4,30.43,SSW,209,4.0,7.0,71,0.00,,,0.00,497,Wunderground v.1.15,2013-01-08 15:49:00,
2013-01-08 10:59:00,46.9,37.3,30.44,SW,217,5.0,5.0,69,0.00,,,0.00,501,Wunderground v.1.15,2013-01-08 15:59:00,
2013-01-08 11:04:00,47.0,36.6,30.43,SSW,200,6.0,10.0,67,0.00,,,0.00,515,Wunderground v.1.15,2013-01-08 16:04:00,
2013-01-08 11:14:00,47.4,37.0,30.43,SSW,193,6.0,7.0,67,0.00,,,0.00,499,Wunderground v.1.15,2013-01-08 16:14:00,
2013-01-08 11:19:00,48.1,36.9,30.42,SSW,193,4.0,7.0,65,0.00,,,0.00,478,Wunderground v.1.15,2013-01-08 16:19:00,
2013-01-08 11:25:00,48.6,37.0,30.42,SSW,194,5.0,7.0,64,0.00,,,0.00,343,Wunderground v.1.15,2013-01-08 16:25:00,
2013-01-08 11:34:00,49.0,36.5,30.41,SSW,201,6.0,6.0,62,0.00,,,0.00,503,Wunderground v.1.15,2013-01-08 16:34:00,
2013-01-08 11:44:00,49.7,36.4,30.41,SSW,195,7.0,7.0,60,0.00,,,0.00,533,Wunderground v.1.15,2013-01-08 16:44:00,
2013-01-08 11:49:00,49.9,36.1,30.41,SSW,194,8.0,8.0,59,0.00,,,0.00,487,Wunderground v.1.15,2013-01-08 16:49:00,
2013-01-08 11:59:00,50.3,36.5,30.40,SSW,196,7.0,7.0,59,0.00,,,0.00,519,Wunderground v.1.15,2013-01-08 16:59:00,
2013-01-08 12:04:00,50.7,36.5,30.39,SSW,198,6.0,7.0,58,0.00,,,0.00,448,Wunderground v.1.15,2013-01-08 17:04:00,
2013-01-08 12:14:00,50.7,36.0,30.39,SSW,194,7.0,7.0,57,0.00,,,0.00,508,Wunderground v.1.15,2013-01-08 17:14:00,
2013-01-08 12:19:00,50.9,36.2,30.39,SSW,194,7.0,7.0,57,0.00,,,0.00,429,Wunderground v.1.15,2013-01-08 17:19:00,
2013-01-08 12:29:00,51.4,35.8,30.39,SSW,198,6.0,6.0,55,0.00,,,0.00,492,Wunderground v.1.15,2013-01-08 17:29:00,
2013-01-08 12:35:00,51.8,35.7,30.39,SSW,196,6.0,10.0,54,0.00,,,0.00,420,Wunderground v.1.15,2013-01-08 17:35:00,
2013-01-08 12:44:00,51.9,35.8,30.39,SSW,197,7.0,7.0,54,0.00,,,0.00,466,Wunderground v.1.15,2013-01-08 17:44:00,
2013-01-08 12:50:00,52.1,35.9,30.39,SSW,195,6.0,7.0,54,0.00,,,0.00,413,Wunderground v.1.15,2013-01-08 17:50:00,
2013-01-08 12:59:00,53.2,36.0,30.39,SSW,195,4.0,4.0,52,0.00,,,0.00,374,Wunderground v.1.15,2013-01-08 17:59:00,
2013-01-08 13:05:00,53.4,35.7,30.39,SSW,195,3.0,7.0,51,0.00,,,0.00,271,Wunderground v.1.15,2013-01-08 18:05:00,
2013-01-08 13:14:00,53.3,35.6,30.38,SSW,195,4.0,7.0,51,0.00,,,0.00,301,Wunderground v.1.15,2013-01-08 18:14:00,
2013-01-08 13:24:00,53.7,35.0,30.38,SW,215,5.0,7.0,49,0.00,,,0.00,269,Wunderground v.1.15,2013-01-08 18:24:00,
2013-01-08 13:29:00,54.1,34.3,30.38,SW,216,6.0,9.0,47,0.00,,,0.00,383,Wunderground v.1.15,2013-01-08 18:29:00,
2013-01-08 13:35:00,54.3,34.5,30.38,WSW,246,6.0,11.0,47,0.00,,,0.00,429,Wunderground v.1.15,2013-01-08 18:35:00,
2013-01-08 13:44:00,54.8,34.4,30.38,SW,215,7.0,7.0,46,0.00,,,0.00,396,Wunderground v.1.15,2013-01-08 18:44:00,
2013-01-08 13:50:00,54.8,34.9,30.38,WSW,238,6.0,6.0,47,0.00,,,0.00,362,Wunderground v.1.15,2013-01-08 18:50:00,
2013-01-08 13:59:00,55.1,34.7,30.38,WSW,238,5.0,7.0,46,0.00,,,0.00,408,Wunderground v.1.15,2013-01-08 18:59:00,
2013-01-08 14:04:00,55.3,34.9,30.38,WSW,238,5.0,7.0,46,0.00,,,0.00,404,Wunderground v.1.15,2013-01-08 19:04:00,
2013-01-08 14:14:00,55.8,35.3,30.38,SW,236,3.0,7.0,46,0.00,,,0.00,364,Wunderground v.1.15,2013-01-08 19:14:00,
2013-01-08 14:20:00,55.8,35.3,30.38,SW,236,3.0,3.0,46,0.00,,,0.00,311,Wunderground v.1.15,2013-01-08 19:20:00,
2013-01-08 14:29:00,56.1,35.0,30.38,WSW,244,4.0,7.0,45,0.00,,,0.00,348,Wunderground v.1.15,2013-01-08 19:29:00,
2013-01-08 14:34:00,56.2,35.1,30.38,WSW,249,6.0,7.0,45,0.00,,,0.00,348,Wunderground v.1.15,2013-01-08 19:34:00,
2013-01-08 14:40:00,56.1,35.6,30.38,WSW,241,7.0,7.0,46,0.00,,,0.00,327,Wunderground v.1.15,2013-01-08 19:40:00,
2013-01-08 14:49:00,56.3,35.8,30.39,SW,236,7.0,8.0,46,0.00,,,0.00,216,Wunderground v.1.15,2013-01-08 19:49:00,
2013-01-08 14:54:00,56.0,35.5,30.39,WSW,254,8.0,8.0,46,0.00,,,0.00,179,Wunderground v.1.15,2013-01-08 19:54:00,
2013-01-08 15:04:00,56.0,36.0,30.39,WSW,250,6.0,7.0,47,0.00,,,0.00,107,Wunderground v.1.15,2013-01-08 20:04:00,
2013-01-08 15:09:00,55.7,35.8,30.39,SW,236,5.0,8.0,47,0.00,,,0.00,134,Wunderground v.1.15,2013-01-08 20:09:00,
2013-01-08 15:19:00,55.4,36.0,30.40,WSW,243,5.0,7.0,48,0.00,,,0.00,56,Wunderground v.1.15,2013-01-08 20:19:00,
2013-01-08 15:24:00,55.3,35.9,30.40,WSW,243,5.0,7.0,48,0.00,,,0.00,93,Wunderground v.1.15,2013-01-08 20:24:00,
2013-01-08 15:29:00,55.1,35.7,30.40,West,263,6.0,7.0,48,0.00,,,0.00,130,Wunderground v.1.15,2013-01-08 20:29:00,
2013-01-08 15:39:00,55.0,35.7,30.40,West,260,7.0,7.0,48,0.00,,,0.00,104,Wunderground v.1.15,2013-01-08 20:39:00,
2013-01-08 15:44:00,54.8,35.5,30.40,West,261,6.0,7.0,48,0.00,,,0.00,155,Wunderground v.1.15,2013-01-08 20:44:00,
2013-01-08 15:54:00,54.8,36.0,30.40,WSW,252,5.0,7.0,49,0.00,,,0.00,83,Wunderground v.1.15,2013-01-08 20:54:00,
2013-01-08 16:00:00,54.5,35.7,30.41,WSW,251,6.0,6.0,49,0.00,,,0.00,95,Wunderground v.1.15,2013-01-08 21:00:00,
2013-01-08 16:10:00,53.8,35.6,30.41,West,261,6.0,6.0,50,0.00,,,0.00,49,Wunderground v.1.15,2013-01-08 21:10:00,
2013-01-08 16:19:00,53.4,35.7,30.41,West,261,5.0,5.0,51,0.00,,,0.00,26,Wunderground v.1.15,2013-01-08 21:19:00,
2013-01-08 16:29:00,52.9,35.2,30.41,West,261,4.0,4.0,51,0.00,,,0.00,21,Wunderground v.1.15,2013-01-08 21:29:00,
2013-01-08 16:35:00,52.6,35.5,30.41,West,261,3.0,7.0,52,0.00,,,0.00,16,Wunderground v.1.15,2013-01-08 21:35:00,
2013-01-08 16:49:00,51.8,34.7,30.41,West,261,3.0,7.0,52,0.00,,,0.00,5,Wunderground v.1.15,2013-01-08 21:49:00,
2013-01-08 16:54:00,51.7,34.1,30.41,West,261,4.0,7.0,51,0.00,,,0.00,0,Wunderground v.1.15,2013-01-08 21:54:00,
2013-01-08 17:00:00,51.5,34.0,30.41,West,261,4.0,7.0,51,0.00,,,0.00,0,Wunderground v.1.15,2013-01-08 22:00:00,
2013-01-08 17:09:00,51.3,34.3,30.41,West,261,3.0,3.0,52,0.00,,,0.00,0,Wunderground v.1.15,2013-01-08 22:09:00,
2013-01-08 17:15:00,51.0,34.0,30.41,West,261,2.0,7.0,52,0.00,,,0.00,0,Wunderground v.1.15,2013-01-08 22:15:00,
2013-01-08 17:24:00,50.6,34.1,30.41,West,261,1.0,7.0,53,0.00,,,0.00,0,Wunderground v.1.15,2013-01-08 22:24:00,
2013-01-08 17:30:00,50.5,34.0,30.41,West,261,1.0,7.0,53,0.00,,,0.00,0,Wunderground v.1.15,2013-01-08 22:30:00,
2013-01-08 17:39:00,50.3,34.3,30.41,West,261,1.0,1.0,54,0.00,,,0.00,0,Wunderground v.1.15,2013-01-08 22:39:00,
2013-01-08 17:45:00,50.2,34.6,30.41,West,261,1.0,2.0,55,0.00,,,0.00,0,Wunderground v.1.15,2013-01-08 22:45:00,
2013-01-08 17:54:00,50.1,34.5,30.41,West,261,1.0,7.0,55,0.00,,,0.00,0,Wunderground v.1.15,2013-01-08 22:54:00,
2013-01-08 17:59:00,50.0,34.5,30.41,West,261,1.0,7.0,55,0.00,,,0.00,0,Wunderground v.1.15,2013-01-08 22:59:00,
2013-01-08 18:05:00,49.9,34.4,30.41,West,261,1.0,7.0,55,0.00,,,0.00,0,Wunderground v.1.15,2013-01-08 23:05:00,
2013-01-08 18:14:00,49.7,34.2,30.41,West,261,1.0,7.0,55,0.00,,,0.00,0,Wunderground v.1.15,2013-01-08 23:14:00,
2013-01-08 18:24:00,49.6,34.5,30.41,West,261,1.0,7.0,56,0.00,,,0.00,0,Wunderground v.1.15,2013-01-08 23:24:00,
2013-01-08 18:29:00,49.5,34.4,30.41,West,261,1.0,7.0,56,0.00,,,0.00,0,Wunderground v.1.15,2013-01-08 23:29:00,
2013-01-08 18:35:00,49.4,34.3,30.41,West,261,1.0,7.0,56,0.00,,,0.00,0,Wunderground v.1.15,2013-01-08 23:35:00,
2013-01-08 18:44:00,49.2,34.6,30.42,West,261,1.0,7.0,57,0.00,,,0.00,0,Wunderground v.1.15,2013-01-08 23:44:00,
2013-01-08 18:50:00,49.0,34.4,30.41,West,261,0.0,7.0,57,0.00,,,0.00,0,Wunderground v.1.15,2013-01-08 23:50:00,
2013-01-08 18:59:00,48.9,34.8,30.41,West,261,0.0,7.0,58,0.00,,,0.00,0,Wunderground v.1.15,2013-01-08 23:59:00,
2013-01-08 19:05:00,48.8,34.7,30.41,West,261,0.0,7.0,58,0.00,,,0.00,0,Wunderground v.1.15,2013-01-09 00:05:00,
2013-01-08 19:14:00,48.8,34.7,30.41,West,261,1.0,7.0,58,0.00,,,0.00,0,Wunderground v.1.15,2013-01-09 00:14:00,
2013-01-08 19:20:00,48.8,34.7,30.41,West,261,1.0,1.0,58,0.00,,,0.00,0,Wunderground v.1.15,2013-01-09 00:20:00,
2013-01-08 19:29:00,48.8,35.1,30.42,West,261,1.0,7.0,59,0.00,,,0.00,0,Wunderground v.1.15,2013-01-09 00:29:00,
2013-01-08 19:34:00,48.8,35.1,30.42,West,261,2.0,7.0,59,0.00,,,0.00,0,Wunderground v.1.15,2013-01-09 00:34:00,
2013-01-08 19:40:00,48.8,35.1,30.42,West,261,2.0,7.0,59,0.00,,,0.00,0,Wunderground v.1.15,2013-01-09 00:40:00,
2013-01-08 19:49:00,48.7,35.4,30.42,West,261,1.0,7.0,60,0.00,,,0.00,0,Wunderground v.1.15,2013-01-09 00:49:00,
2013-01-08 19:55:00,48.7,35.4,30.42,West,261,1.0,7.0,60,0.00,,,0.00,0,Wunderground v.1.15,2013-01-09 00:55:00,
2013-01-08 20:05:00,48.7,35.4,30.42,West,261,1.0,7.0,60,0.00,,,0.00,0,Wunderground v.1.15,2013-01-09 01:05:00,
2013-01-08 20:10:00,48.6,35.3,30.42,West,261,1.0,1.0,60,0.00,,,0.00,0,Wunderground v.1.15,2013-01-09 01:10:00,
2013-01-08 20:19:00,48.6,34.9,30.41,West,261,1.0,1.0,59,0.00,,,0.00,0,Wunderground v.1.15,2013-01-09 01:19:00,
2013-01-08 20:25:00,48.7,35.0,30.41,West,261,0.0,7.0,59,0.00,,,0.00,0,Wunderground v.1.15,2013-01-09 01:25:00,
2013-01-08 20:34:00,48.5,35.2,30.41,West,261,2.0,7.0,60,0.00,,,0.00,0,Wunderground v.1.15,2013-01-09 01:34:00,
2013-01-08 20:40:00,48.4,35.1,30.40,West,261,2.0,2.0,60,0.00,,,0.00,0,Wunderground v.1.15,2013-01-09 01:40:00,
2013-01-08 20:45:00,48.3,35.5,30.40,West,261,1.0,7.0,61,0.00,,,0.00,0,Wunderground v.1.15,2013-01-09 01:45:00,
2013-01-08 20:55:00,48.0,36.0,30.39,West,261,0.0,7.0,63,0.00,,,0.00,0,Wunderground v.1.15,2013-01-09 01:55:00,
2013-01-08 21:04:00,47.8,35.4,30.40,West,261,0.0,7.0,62,0.00,,,0.00,0,Wunderground v.1.15,2013-01-09 02:04:00,
2013-01-08 21:10:00,47.7,35.7,30.39,West,261,0.0,7.0,63,0.00,,,0.00,0,Wunderground v.1.15,2013-01-09 02:10:00,
2013-01-08 21:15:00,47.7,35.7,30.39,West,261,0.0,7.0,63,0.00,,,0.00,0,Wunderground v.1.15,2013-01-09 02:15:00,
2013-01-08 21:24:00,47.5,34.7,30.40,West,261,0.0,7.0,61,0.00,,,0.00,0,Wunderground v.1.15,2013-01-09 02:24:00,
2013-01-08 21:35:00,47.7,34.5,30.40,West,261,1.0,7.0,60,0.00,,,0.00,0,Wunderground v.1.15,2013-01-09 02:35:00,
2013-01-08 21:44:00,47.7,34.9,30.40,West,261,1.0,7.0,61,0.00,,,0.00,0,Wunderground v.1.15,2013-01-09 02:44:00,
2013-01-08 21:50:00,47.6,35.2,30.40,West,261,1.0,7.0,62,0.00,,,0.00,0,Wunderground v.1.15,2013-01-09 02:50:00,
2013-01-08 22:00:00,47.6,35.6,30.41,West,261,0.0,7.0,63,0.00,,,0.00,0,Wunderground v.1.15,2013-01-09 03:00:00,
2013-01-08 22:05:00,47.6,36.0,30.41,West,261,0.0,7.0,64,0.00,,,0.00,0,Wunderground v.1.15,2013-01-09 03:05:00,
2013-01-08 22:14:00,47.6,36.8,30.41,West,261,0.0,7.0,66,0.00,,,0.00,0,Wunderground v.1.15,2013-01-09 03:14:00,
2013-01-08 22:20:00,47.7,37.3,30.41,West,261,0.0,7.0,67,0.00,,,0.00,0,Wunderground v.1.15,2013-01-09 03:20:00,
2013-01-08 22:30:00,47.7,37.3,30.40,West,261,0.0,7.0,67,0.00,,,0.00,0,Wunderground v.1.15,2013-01-09 03:30:00,
2013-01-08 22:35:00,47.7,37.7,30.40,West,261,1.0,7.0,68,0.00,,,0.00,0,Wunderground v.1.15,2013-01-09 03:35:00,
2013-01-08 22:44:00,47.4,38.5,30.40,West,261,0.0,7.0,71,0.00,,,0.00,0,Wunderground v.1.15,2013-01-09 03:44:00,
2013-01-08 22:50:00,47.2,38.3,30.40,West,261,0.0,7.0,71,0.00,,,0.00,0,Wunderground v.1.15,2013-01-09 03:50:00,
2013-01-08 22:55:00,46.9,37.6,30.40,West,261,0.0,7.0,70,0.00,,,0.00,0,Wunderground v.1.15,2013-01-09 03:55:00,
2013-01-08 23:05:00,46.8,37.5,30.40,West,261,0.0,7.0,70,0.00,,,0.00,0,Wunderground v.1.15,2013-01-09 04:05:00,
2013-01-08 23:14:00,46.8,37.2,30.40,West,261,1.0,7.0,69,0.00,,,0.00,0,Wunderground v.1.15,2013-01-09 04:14:00,
2013-01-08 23:20:00,46.8,37.2,30.40,West,261,1.0,7.0,69,0.00,,,0.00,0,Wunderground v.1.15,2013-01-09 04:20:00,
2013-01-08 23:25:00,46.8,37.2,30.40,West,261,1.0,7.0,69,0.00,,,0.00,0,Wunderground v.1.15,2013-01-09 04:25:00,
2013-01-08 23:35:00,46.8,36.8,30.39,West,261,0.0,7.0,68,0.00,,,0.00,0,Wunderground v.1.15,2013-01-09 04:35:00,
2013-01-08 23:40:00,46.8,36.8,30.40,West,261,0.0,7.0,68,0.00,,,0.00,0,Wunderground v.1.15,2013-01-09 04:40:00,
2013-01-08 23:50:00,46.8,36.8,30.39,West,261,0.0,7.0,68,0.00,,,0.00,0,Wunderground v.1.15,2013-01-09 04:50:00,
2013-01-08 23:55:00,46.8,36.8,30.39,West,261,0.0,7.0,68,0.00,,,0.00,0,Wunderground v.1.15,2013-01-09 04:55:00,